Starlink 31368

operational
NORAD ID: 58970 Int'l Des: 2024-031 Owner: SPXS Country: US Constellation: starlink
LEOCIRCULAR

Über Starlink 31368

Beschreibung wird geladen...

Live-Position

3D-Globus wird geladen...

Nächste Überflüge

Höhenverlauf

Altitude vs Time

uPlot chart will show altitude changes over time

Zweizeiliger Elementsatz

1 58970U 24031F 25258.62459057 -.00000977 00000-0 -20859-4 0 9992
2 58970 53.1617 29.5983 0001048 76.1539 283.9578 15.30204840 89730
Epoch: 15. Sept. 2025 • Age: 11 hours

Aktueller Status

Höhe 483.0 km
Geschwindigkeit 7.62 km/s
Subsatellitenpunkt -25.85°S, 16.23°W
Startdatum 15. Feb. 2024
Alter 1.5 years
Typ internet

Technische Details

Klassifizierung Payload
Masse 730.00 kg
Trockenmasse 700.00 kg
Gesamtmasse 730.00 kg
Länge 0.30 m
Durchmesser 4.10 m
Spannweite 29.00 m
Form Box + pan
Hersteller SPXS
Bus-Typ Starlink V2M
Phasenstatus In Orbit
Besitzer/Staat SPXS/US

Große Konstellationen

Loading constellations...